Flag for Kazakhstan Weather past 2 weeks in Karaganda, Kazakhstan

Now
68 °F

Thundershowers. Passing clouds.


Feels Like: 68 °F
Forecast: 63 / 79 °F
Wind: 13 mph from West

Location: Karaganda

Current Time: Jul 3, 2015 at 5:41:08 AM

Latest Report: Jul 3, 2015 at 5:00 AM


Visibility: N/A

Pressure: 29.56 "Hg

Humidity: 64%

Dew point: 55 °F

Location of KaragandaLocation

Historic Weather in Karaganda — Graph

°F

Karaganda temperature yesterday

Maximum temperature yesterday: 91 °F (at 1:00 PM)
Minimum temperature yesterday: 50 °F (at 5:30 AM)
Average temperature yesterday: 74 °F

Past Weeks' High & Low Weather Summary

 TemperatureHumidityPressure
High91 °F (Jul 2, 1:00 PM)100% (Jun 18, 5:00 AM)30.01 "Hg (Jun 18, 5:00 AM)
Low41 °F (Jun 28, 5:00 AM)15% (Jul 1, 3:00 PM)29.56 "Hg (Jul 3, 3:30 AM)
Average68 °F55%29.86 "Hg
* Reported Jun 18 4:00 AM — Jul 3 4:30 AM, Karaganda, Weather by CustomWeather, © 2015

Note: Actual official high and low records may vary slightly from our data, if they occured in-between our weather recording intervals... More about our weather records

Advertising

Karaganda weather history for previous 24 hours

 ConditionsComfort  
Time TempWeatherWind HumidityBarometerVisibility
4:30 AM
Fri, Jul 3
68 °FThundershowers. Partly cloudy.13 mph60%29.56 "HgN/A
3:30 AM63 °FPassing clouds.3 mph77%29.56 "HgN/A
3:00 AM64 °FPassing clouds.10 mph73%29.59 "HgN/A
2:30 AM64 °FPassing clouds.3 mph73%29.59 "HgN/A
2:00 AM66 °FThundershowers. Partly cloudy.15 mph68%29.59 "HgN/A
1:30 AM66 °FThundershowers. Partly cloudy.8 mph64%29.59 "HgN/A
1:00 AM63 °FThundershowers. Partly cloudy.8 mph83%29.62 "HgN/A
12:30 AM63 °FThunderstorms. Partly cloudy.10 mph83%29.65 "HgN/A
12:00 AM63 °FThunderstorms. Partly cloudy.13 mph83%29.65 "HgN/A
11:30 PM
Thu, Jul 2
63 °FThundershowers. Partly cloudy.13 mph88%29.65 "HgN/A
11:00 PM64 °FThundershowers. Partly cloudy.13 mph83%29.68 "HgN/A
10:30 PM70 °FThunderstorms. Passing clouds.24 mph64%29.77 "HgN/A
10:00 PM68 °FThundershowers. Mostly cloudy.10 mph78%29.68 "HgN/A
9:30 PM72 °FSprinkles. Mostly cloudy.6 mph69%29.71 "Hg2 mi
9:00 PM75 °FMore clouds than sun.10 mph54%29.71 "HgN/A
8:30 PM82 °FMore clouds than sun.3 mph30%29.71 "HgN/A
8:00 PM81 °FMore clouds than sun.3 mph37%29.71 "HgN/A
7:30 PM82 °FBroken clouds.6 mph37%29.71 "HgN/A
7:00 PM82 °FBroken clouds.8 mph35%29.71 "HgN/A
6:30 PM81 °FMore clouds than sun.6 mph45%29.74 "HgN/A
6:00 PM82 °FMore clouds than sun.3 mph42%29.74 "HgN/A
5:30 PM84 °FMore clouds than sun.3 mph31%29.77 "HgN/A
5:00 PM86 °FMore clouds than sun.6 mph29%29.77 "HgN/A
4:30 PM86 °FSunny.6 mph29%29.77 "Hg10 mi
4:00 PM88 °FPassing clouds.8 mph27%29.77 "HgN/A
3:30 PM88 °FPassing clouds.8 mph24%29.77 "HgN/A
3:00 PM90 °FPassing clouds.6 mph24%29.80 "HgN/A
2:30 PM88 °FPassing clouds.6 mph24%29.80 "HgN/A
2:00 PM88 °FSunny.6 mph27%29.77 "Hg10 mi
1:30 PM88 °FBroken clouds.10 mph22%29.80 "HgN/A
1:00 PM91 °FPassing clouds.6 mph18%29.80 "HgN/A
12:30 PM90 °FPassing clouds.6 mph20%29.80 "HgN/A
12:00 PM90 °FPassing clouds.8 mph22%29.80 "HgN/A
11:30 AM88 °FPassing clouds.6 mph24%29.83 "HgN/A
11:00 AM88 °FPassing clouds.8 mph22%29.83 "HgN/A
10:30 AM86 °FPassing clouds.8 mph25%29.83 "HgN/A
10:00 AM86 °FSunny.1 mph24%29.83 "Hg10 mi
9:30 AM82 °FPassing clouds.3 mph32%29.83 "HgN/A
9:00 AM81 °FSunny.1 mph34%29.83 "Hg10 mi
8:30 AM75 °FSunny.1 mph41%29.83 "Hg10 mi
8:00 AM73 °FSunny.No wind44%29.83 "Hg10 mi
7:30 AM68 °FSunny.1 mph56%29.83 "Hg10 mi
7:00 AM61 °FSunny.No wind68%29.83 "Hg10 mi
6:30 AM55 °FSunny.1 mph77%29.83 "Hg10 mi
6:00 AM52 °FClear.3 mph82%29.83 "Hg10 mi
5:30 AM50 °FClear.1 mph88%29.83 "Hg10 mi
5:00 AM52 °FClear.1 mph82%29.83 "Hg10 mi
Weather by CustomWeather, © 2015

See weather overviewHow to use our weather pages